Rogers, AR

5:58 PM CDT on June 22, 2018 (GMT -0500)
Rogers Municipal-Carter

Weather History for KROG - September, 2017

Change the Weather History Date:

Thursday, September 21, 2017

  Actual Average Record
Temperature  
Mean Temperature 80 °F -  
Max Temperature 88 °F 75 °F 93 °F (2005)
Min Temperature 71 °F 55 °F 46 °F (1996)
Cooling Degree Days 14    
Growing Degree Days 30 (Base 50)    
Moisture  
Dew Point 70 °F    
Average Humidity 74    
Maximum Humidity 96    
Minimum Humidity 53    
Precipitation  
Precipitation 0.00 in - - ()
Sea Level Pressure  
Sea Level Pressure 29.96 in    
Wind  
Wind Speed 9 mph (SSE)    
Max Wind Speed 15 mph    
Max Gust Speed 23 mph    
Visibility 10 miles    
Events      
Averages and records for this station are not official NWS values.
T = Trace of Precipitation, MM = Missing Value Source: NWS Daily Summary

Daily Weather History Graph

Daily Weather History Graph

Search for Another Location

Airport or City:

Astronomy

Sep. 21, 2017 Rise Set
Actual Time 7:03 AM CDT 7:14 PM CDT
Civil Twilight 6:38 AM CDT 7:40 PM CDT
Nautical Twilight 6:07 AM CDT 8:10 PM CDT
Astronomical Twilight 5:37 AM CDT 8:40 PM CDT
Moon 8:21 AM CDT (9/21) 8:24 PM CDT (9/21)
Length of Visible Light 13h 01m
Length of Day
12h 10m
New Moon, 2% of the Moon is Illuminated
Sep 21
New Moon
Sep 27
First Quarter
Oct 5
Full
Oct 12
Last Quarter
Oct 19
New

Hourly Weather History & Observations

Time (CDT) Temp. Heat Index Dew Point Humidity Pressure Visibility Wind Dir Wind Speed Gust Speed Precip Events Conditions
12:58 AM 75.0 °F - 70.0 °F 84% 29.94 in 10.0 mi SSE 8.1 mph - N/A   Clear
1:58 AM 75.0 °F - 69.1 °F 82% 29.93 in 10.0 mi SSE 9.2 mph - N/A   Clear
2:58 AM 73.0 °F - 69.1 °F 87% 29.92 in 10.0 mi SE 5.8 mph - N/A   Clear
3:58 AM 73.0 °F - 70.0 °F 90% 29.92 in 10.0 mi SE 5.8 mph - N/A   Clear
4:58 AM 72.0 °F - 70.0 °F 93% 29.92 in 10.0 mi SE 9.2 mph - N/A   Clear
5:58 AM 72.0 °F - 70.0 °F 93% 29.93 in 9.0 mi SSE 9.2 mph - N/A   Clear
6:58 AM 71.1 °F - 70.0 °F 96% 29.95 in 7.0 mi SE 9.2 mph - N/A   Clear
7:58 AM 73.0 °F - 70.0 °F 90% 29.97 in 8.0 mi SSE 8.1 mph - N/A   Clear
8:58 AM 77.0 °F - 71.1 °F 82% 29.98 in 10.0 mi SSE 9.2 mph - N/A   Clear
9:58 AM 81.0 °F 85.2 °F 72.0 °F 74% 29.99 in 10.0 mi South 8.1 mph - N/A   Clear
11:16 AM 86.0 °F 93.4 °F 73.4 °F 66% 30.03 in 10.0 mi South 15.0 mph - N/A   Mostly Cloudy
11:51 AM 84.2 °F 89.6 °F 71.6 °F 66% 30.04 in 10.0 mi South 12.7 mph - N/A   Mostly Cloudy
11:58 AM 84.9 °F 90.7 °F 72.0 °F 65% 29.99 in 10.0 mi South 13.8 mph - N/A   Scattered Clouds
12:58 PM 84.9 °F 90.7 °F 72.0 °F 65% 29.98 in 10.0 mi South 13.8 mph - N/A   Mostly Cloudy
1:03 PM 86.0 °F 91.8 °F 71.6 °F 62% 30.03 in 10.0 mi South 15.0 mph 20.7 mph N/A   Scattered Clouds
1:58 PM 86.0 °F 91.5 °F 71.1 °F 61% 29.96 in 10.0 mi South 12.7 mph 23.0 mph N/A   Scattered Clouds
2:58 PM 88.0 °F 92.9 °F 70.0 °F 55% 29.94 in 10.0 mi South 13.8 mph - N/A   Scattered Clouds
3:58 PM 87.1 °F 92.0 °F 70.0 °F 57% 29.93 in 10.0 mi SSE 10.4 mph - N/A   Partly Cloudy
4:58 PM 88.0 °F 92.1 °F 69.1 °F 53% 29.91 in 10.0 mi SSE 11.5 mph - N/A   Partly Cloudy
5:58 PM 86.0 °F 90.1 °F 69.1 °F 57% 29.91 in 10.0 mi SSE 11.5 mph - N/A   Clear
6:58 PM 82.9 °F 87.0 °F 70.0 °F 65% 29.92 in 10.0 mi SSE 6.9 mph - N/A   Clear
7:58 PM 79.0 °F - 70.0 °F 74% 29.93 in 10.0 mi SE 5.8 mph - N/A   Clear
8:58 PM 78.1 °F - 69.1 °F 74% 29.94 in 10.0 mi SE 5.8 mph - N/A   Clear
9:58 PM 75.9 °F - 69.1 °F 79% 29.95 in 10.0 mi SE 6.9 mph - N/A   Clear
10:58 PM 73.9 °F - 68.0 °F 82% 29.96 in 10.0 mi SE 5.8 mph - N/A   Clear
11:58 PM 73.0 °F - 68.0 °F 84% 29.96 in 10.0 mi East 4.6 mph - N/A   Clear